TimeCDT,TemperatureF,Dew PointF,Humidity,Sea Level PressureIn,VisibilityMPH,Wind Direction,Wind SpeedMPH,Gust SpeedMPH,PrecipitationIn,Events,Conditions,WindDirDegrees,DateUTC
12:54 AM,52.0,48.9,89,30.12,6.0,East,10.4,-,0.03,Rain,Light Rain,90,2013-05-27 05:54:00
1:54 AM,52.0,48.9,89,30.12,10.0,East,8.1,-,0.00,Rain,Light Rain,90,2013-05-27 06:54:00
2:54 AM,53.1,50.0,89,30.08,8.0,East,10.4,-,0.00,,Overcast,100,2013-05-27 07:54:00
3:37 AM,53.6,51.8,94,30.06,4.0,East,9.2,-,0.00,,Light Drizzle,100,2013-05-27 08:37:00
3:54 AM,54.0,52.0,93,30.06,3.0,ESE,9.2,-,0.00,,Light Drizzle,110,2013-05-27 08:54:00
4:54 AM,55.0,53.1,93,30.05,3.0,ESE,5.8,-,0.00,,Overcast,110,2013-05-27 09:54:00
5:18 AM,55.4,53.6,94,30.03,2.0,East,10.4,-,N/A,,Overcast,100,2013-05-27 10:18:00
5:54 AM,55.9,54.0,93,30.05,2.0,ESE,9.2,-,N/A,,Overcast,120,2013-05-27 10:54:00
6:54 AM,57.0,55.0,93,30.04,2.0,ESE,9.2,-,N/A,,Overcast,110,2013-05-27 11:54:00
7:54 AM,57.9,55.9,93,30.04,2.0,ESE,9.2,-,N/A,,Overcast,120,2013-05-27 12:54:00
8:06 AM,57.2,57.2,100,30.04,1.5,ESE,9.2,-,0.00,,Light Drizzle,110,2013-05-27 13:06:00
8:33 AM,59.0,57.2,94,30.03,1.2,East,9.2,-,0.00,,Light Drizzle,90,2013-05-27 13:33:00
8:54 AM,59.0,57.9,96,30.03,1.2,ESE,9.2,-,0.00,,Light Drizzle,110,2013-05-27 13:54:00
9:01 AM,59.0,57.2,94,30.03,1.5,ESE,6.9,-,0.00,,Light Drizzle,110,2013-05-27 14:01:00
9:54 AM,60.1,57.9,93,30.01,1.5,ESE,9.2,-,0.00,,Light Drizzle,120,2013-05-27 14:54:00
10:54 AM,60.1,57.9,93,29.99,1.5,ESE,8.1,-,0.00,,Light Drizzle,120,2013-05-27 15:54:00
11:54 AM,60.1,57.9,93,30.00,1.5,East,8.1,-,0.00,,Light Drizzle,100,2013-05-27 16:54:00
12:54 PM,61.0,57.9,90,29.99,4.0,ESE,11.5,-,0.00,,Overcast,110,2013-05-27 17:54:00
1:25 PM,59.0,57.2,94,29.98,2.0,East,11.5,-,0.00,,Light Drizzle,100,2013-05-27 18:25:00
1:54 PM,59.0,57.0,93,29.98,3.0,East,8.1,-,0.00,,Overcast,100,2013-05-27 18:54:00
2:11 PM,60.8,57.2,88,29.96,2.0,East,11.5,-,N/A,,Overcast,80,2013-05-27 19:11:00
2:37 PM,59.0,57.2,94,29.96,1.8,East,11.5,-,N/A,,Overcast,90,2013-05-27 19:37:00
2:54 PM,59.0,57.0,93,29.96,1.5,East,11.5,-,0.00,,Light Drizzle,90,2013-05-27 19:54:00
3:54 PM,59.0,57.0,93,29.95,1.8,East,9.2,-,0.00,,Overcast,90,2013-05-27 20:54:00
4:54 PM,59.0,55.9,90,29.91,1.8,East,11.5,-,0.00,,Overcast,90,2013-05-27 21:54:00
5:47 PM,60.8,55.4,82,29.90,2.0,East,10.4,-,0.00,,Overcast,80,2013-05-27 22:47:00
5:54 PM,60.1,55.9,86,29.89,2.5,East,13.8,-,0.00,,Overcast,80,2013-05-27 22:54:00
6:54 PM,60.1,55.0,83,29.88,3.0,East,10.4,-,N/A,,Haze,80,2013-05-27 23:54:00
7:54 PM,59.0,55.0,87,29.89,4.0,East,11.5,-,N/A,,Overcast,80,2013-05-28 00:54:00
8:32 PM,57.2,55.4,94,29.89,3.0,East,9.2,-,N/A,,Overcast,90,2013-05-28 01:32:00
8:54 PM,57.0,55.0,93,29.90,3.0,East,10.4,-,N/A,,Overcast,90,2013-05-28 01:54:00
9:38 PM,55.4,55.4,100,29.89,2.0,ENE,10.4,-,N/A,,Overcast,70,2013-05-28 02:38:00
9:54 PM,55.9,55.0,97,29.89,2.0,ENE,9.2,-,N/A,,Overcast,70,2013-05-28 02:54:00
10:54 PM,55.9,55.0,97,29.90,1.2,East,8.1,-,N/A,,Overcast,80,2013-05-28 03:54:00
11:54 PM,55.0,54.0,96,29.89,1.0,East,5.8,-,N/A,,Overcast,90,2013-05-28 04:54:00